{"data":{"norad_id":55060,"intl_designator":"2023-001BD","name":"ION SCV-007","alt_names":[],"object_type":"PAYLOAD","status":"ACTIVE","operator":null,"country":"IT","launch_date":"2023-01-03","launch_site_code":"AFETR","launch_vehicle":null,"mission":null,"orbit_class":"UNKNOWN","rcs_meters":null,"size_class":null,"mass_kg":null,"dimensions":null,"purposes":[],"wikipedia_slug":null,"has_3d_model":false,"image_url":null,"decayed_at":null,"tle_current":{"epoch":"2026-09-21T18:21:48.567744Z","epoch_age_seconds":56107,"freshness":"FRESH","line1":"1 55060U 23001BD  26264.76514546  .00000188  00000+0  33329-4 0  9990","line2":"2 55060  97.8905 325.8149 0012941  29.6875 330.5067 14.77622219200515","mean_motion":14.77622219,"eccentricity":0.0012941,"inclination_deg":97.8905,"raan_deg":325.8149,"arg_perigee_deg":29.6875,"mean_anomaly_deg":330.5067,"bstar":3.3329e-5,"rev_number":20051,"period_min":97.453867536896,"perigee_km":627.76161552623,"apogee_km":645.91777821306,"semimajor_km":7014.9766968696,"source":"CELESTRAK","updated_at":"2026-09-22T09:00:25.269521Z"}}}